Regional Weather Roundup
Issued by NWS

Home | Current Version | Previous Version | Text Only | Print | Product List | Glossary Off
Versions: 1 2 3 4 5 6 7 8 9 10 11 12 13 14 15 16 17 18 19 20 21 22 23 24 25 26 27 28 29 30 31 32 33 34 35 36 37 38 39 40 41 42 43 44 45 46 47 48 49 50

000
ASUS45 KTFX 161310
RWRMT
MONTANA REGIONAL WEATHER ROUNDUP
NATIONAL WEATHER SERVICE GREAT FALLS MT
600 AM MST SAT DEC 16 2017

NOTE: "FAIR" INDICATES FEW OR NO CLOUDS BELOW 12000 FEET WITH NO
SIGNIFICANT WEATHER AND/OR OBSTRUCTIONS TO VISIBILITY.

MTZ001>007-043-161400-
WEST OF THE DIVIDE

CITY           SKY/WX    TMP DP  RH WIND       PRES   REMARKS
KALISPELL      CLOUDY    27  26  96 CALM      30.02R
MISSOULA       CLOUDY    29  28  96 CALM      30.01S FOG
BUTTE          CLOUDY    27  23  85 NW6       29.89R WCI  20
MULLAN PASS    LGT SNOW  19  14  81 NW3       29.92S
ANACONDA         N/A     27  27 100 NE5       29.92R
DEER LODGE       N/A     28  28 100 NW10      29.94S WCI  19
EUREKA           N/A     25  21  86 MISG      30.06S
HAMILTON         N/A     28  27  93 CALM      30.01R
LIBBY            N/A     27  27 100 CALM      30.07R
RONAN            N/A     27  25  92 CALM      30.05R
$$

MTZ008-052>055-161400-
SOUTHWEST MONTANA

CITY           SKY/WX    TMP DP  RH WIND       PRES   REMARKS
BOZEMAN        LGT SNOW  30  28  92 W5        29.89R FOG
DILLON         CLOUDY    25  22  88 CALM      29.86R
W YELLOWSTONE  LGT SNOW  23  21  93 SW7       29.84S WCI  15
ENNIS          LGT SNOW  28  28 100 S8        29.89S VSB 3/4 WCI  20
THREE FORKS      N/A     28  27  96 CALM      29.90R VSB 1
$$

MTZ009-010-012-014-046-048-049-054-161400-
EAST SLOPES AND CENTRAL MONTANA

CITY           SKY/WX    TMP DP  RH WIND       PRES   REMARKS
CUT BANK       LGT SNOW  28  28 100 N7        29.91R VSB 1   WCI  21
GREAT FALLS    CLOUDY    29  25  85 CALM      29.93R
MALMSTROM AFB  LGT RAIN  30  29  96 NE3       29.95R
HELENA         SNOW      28  28 100 W3        29.92R VSB 1/2
BOWMANS CRNR   MOCLDY    26  26  99 E3        29.88
CHOTEAU          N/A     28  27  93 S3        29.93R
FAIRFIELD      MOCLDY    28  26  89 CALM      29.91R
POWER          FLURRIES  28  26  95 CALM      29.92R
RAYNESFORD     LGT SNOW  29  26  86 E5        29.92R
ULM            FLURRIES  29  29  98 CALM      29.93R
$$

MTZ011-013-016-021-045-047-050-051-161400-
NORTH CENTRAL MONTANA

CITY           SKY/WX    TMP DP  RH WIND       PRES   REMARKS
HAVRE          CLOUDY    30  29  96 SW7       29.95R WCI  23
LEWISTOWN      FOG       30  30 100 NW5       29.91R VSB 1/2
N BAR RANCH    CLOUDY    30  23  74 CALM      29.91R
CHINOOK          N/A     30  30 100 CALM      29.95R
DENTON         CLOUDY    31  26  83 W8        29.89R WCI  23
GEYSER         SNOWSHWR  28  26  90 NE7       29.91R WCI  21
GRASS RANGE    MOCLDY    31  28  88 CALM      29.88
STANFORD       LGT SNOW  27  26  94 NW5       29.90R FOG
WINIFRED       CLOUDY    30  29  96 W6        29.91R WCI  24
$$

MTZ017>020-022>027-061-062-161400-
NORTHEAST MONTANA

CITY           SKY/WX    TMP DP  RH WIND       PRES   REMARKS
GLASGOW        FAIR      24  23  96 W9        29.91R WCI  14
GLENDIVE       FAIR      30  25  81 NW18      29.88R WCI  18
JORDAN           N/A     28  24  85 W7        29.92R WCI  21
SIDNEY         FAIR      29  24  82 NW15      29.87R WCI  18
WOLF POINT     FAIR      25  20  81 SW8       29.90R WCI  16
MALTA          CLOUDY    32  28  86 NW10      29.93R WCI  24
PLENTYWOOD       N/A     25  21  86 CALM      29.83R
POPLAR           N/A     25  19  80 W6        29.89R WCI  18
$$

MTZ028>42-056>058-161400-
SOUTHCENTRAL AND SOUTHEAST MONTANA

CITY           SKY/WX    TMP DP  RH WIND       PRES   REMARKS
BAKER          FAIR      30  29  96 NW12      29.87R WCI  20
BILLINGS       LGT SNOW  31  31 100 E9        29.90R FOG     WCI  23
LIVINGSTON     LGT SNOW  32  32 100 E7        29.86S VSB 1   WCI  26
MILES CITY     FAIR      31  28  89 NW8       29.91R WCI  23
BIG TIMBER       N/A     30  30 100 N5        29.90R FOG
FORSYTH          N/A     34  32  93 CALM      29.92R
LAUREL           N/A     32  30  93 NE9       29.92R FOG     WCI  24
$$

REGIONAL REPORTS...DAKOTAS

CITY           SKY/WX    TMP DP  RH WIND       PRES   REMARKS
WILLISTON      PTCLDY    30  23  74 NW6       29.84R WCI  24
MINOT          MOCLDY    36  31  82 W13       29.75R WCI  27
DICKINSON      MOCLDY    30  27  88 W9        29.81R WCI  22
BEACH          FAIR      28  27  93 W7        29.89R WCI  21
CROSBY         FAIR      32  28  86 NW15G21   29.81R WCI  22
TIOGA          CLOUDY    30  30 100 NW15      29.82R WCI  19
WATFORD CITY   MOCLDY    30  27  86 W12       29.83R WCI  21
BISMARCK       CLOUDY    36  33  89 NW6       29.80R WCI  31
GRAND FORKS    CLOUDY    21  18  88 E3        29.76R
FARGO          CLOUDY    26  23  88 CALM      29.74R
BUFFALO SD       N/A     34  29  82 NW17G28   29.79R WCI  23
RAPID CITY     FAIR      36  22  56 N25G33    29.84R WCI  24
$$

REGIONAL REPORTS...WYOMING/IDAHO/WASHINGTON

CITY           SKY/WX    TMP DP  RH WIND       PRES   REMARKS
GILLETTE       CLOUDY    31  22  69 CALM      29.87R
SHERIDAN       LGT SNOW  33  32  96 NW7       29.89R FOG     WCI  27
BUFFALO WY     LGT SNOW  32  27  81 N8        29.88R WCI  25
CODY           LGT SNOW  30  28  93 N6        29.86R FOG     WCI  24
YELLOWSTONE LA   N/A     20  19  96 CALM      29.84S
IDAHO FALLS    LGT SNOW  25  24  96 SW6       29.93R VSB 1   WCI  18
SALMON         CLOUDY    22  20  92 CALM      29.99S
BOISE          CLOUDY    24  22  91 NW3       30.09S FOG
SPOKANE        FOG       25  25 100 W5        30.14R VSB 1/2
$$

REGIONAL REPORTS...ALBERTA

CITY           SKY/WX    TMP DP  RH WIND       PRES   REMARKS
EDMONTON       CLEAR     28  16  59 W15G21    29.84R WCI  17
CALGARY        MOCLDY    28  14  54 CALM      29.92R
LETHBRIDGE     FLURRIES  30  28  93 SE9       29.94R WCI  22
MEDICINE HAT   CLOUDY    32  19  59 NW8       29.95R WCI  25
$$

REGIONAL REPORTS...SASKATCHEWAN

CITY           SKY/WX    TMP DP  RH WIND       PRES   REMARKS
SWIFT CURRENT  CLEAR     21  14  73 W14G20    29.85R WCI   8
REGINA         CLEAR     25  23  93 W15       29.78R WCI  12
SASKATOON      CLEAR     25  19  80 W12       29.75R WCI  14
$$



USA.gov is the U.S. government's official web portal to all federal, state and local government web resources and services.